Time,TemperatureF,DewpointF,PressureIn,WindDirection,WindDirectionDegrees,WindSpeedMPH,WindSpeedGustMPH,Humidity,HourlyPrecipIn,Conditions,Clouds,dailyrainin,SoftwareType,DateUTC
2013-02-12 00:00:00,51.3,41.1,29.92,WSW,243,9.0,9.0,68,0.00,,CLR,0.00,VWS V14.01,2013-02-12 05:00:00,
2013-02-12 00:05:00,51.1,40.9,29.92,WSW,245,10.0,11.0,68,0.00,,CLR,0.00,VWS V14.01,2013-02-12 05:05:00,
2013-02-12 00:10:00,51.1,40.5,29.93,WSW,240,9.0,11.0,67,0.00,,CLR,0.00,VWS V14.01,2013-02-12 05:10:00,
2013-02-12 00:15:00,51.0,40.4,29.92,WSW,238,7.0,11.0,67,0.00,,CLR,0.00,VWS V14.01,2013-02-12 05:15:00,
2013-02-12 00:20:00,50.9,40.3,29.92,SW,235,10.0,11.0,67,0.00,,CLR,0.00,VWS V14.01,2013-02-12 05:20:00,
2013-02-12 00:25:00,50.9,40.0,29.92,SW,234,7.0,11.0,66,0.00,,CLR,0.00,VWS V14.01,2013-02-12 05:25:00,
2013-02-12 00:30:00,50.8,39.9,29.92,WSW,243,4.0,4.0,66,0.00,,CLR,0.00,VWS V14.01,2013-02-12 05:30:00,
2013-02-12 00:35:00,50.6,39.7,29.92,SW,217,6.0,7.0,66,0.00,,CLR,0.00,VWS V14.01,2013-02-12 05:35:00,
2013-02-12 00:40:00,50.3,39.4,29.92,West,263,5.0,7.0,66,0.00,,CLR,0.00,VWS V14.01,2013-02-12 05:40:00,
2013-02-12 00:45:00,50.4,39.1,29.92,West,279,0.0,7.0,65,0.00,,CLR,0.00,VWS V14.01,2013-02-12 05:45:00,
2013-02-12 00:50:00,50.4,38.3,29.92,West,267,2.0,7.0,63,0.00,,CLR,0.00,VWS V14.01,2013-02-12 05:50:00,
2013-02-12 00:55:00,50.6,37.7,29.92,WNW,296,1.0,7.0,61,0.00,,CLR,0.00,VWS V14.01,2013-02-12 05:55:00,
2013-02-12 01:00:00,50.6,36.8,29.92,WNW,302,10.0,10.0,59,0.00,,CLR,0.00,VWS V14.01,2013-02-12 06:00:00,
2013-02-12 01:05:00,50.8,35.7,29.93,West,263,3.0,10.0,56,0.00,,CLR,0.00,VWS V14.01,2013-02-12 06:05:00,
2013-02-12 01:10:00,51.3,34.8,29.93,West,280,4.0,14.0,53,0.00,,CLR,0.00,VWS V14.01,2013-02-12 06:10:00,
2013-02-12 01:15:00,51.5,34.5,29.92,WNW,293,3.0,14.0,52,0.00,,CLR,0.00,VWS V14.01,2013-02-12 06:15:00,
2013-02-12 01:20:00,51.7,33.7,29.92,West,267,6.0,14.0,50,0.00,,CLR,0.00,VWS V14.01,2013-02-12 06:20:00,
2013-02-12 01:25:00,51.8,33.3,29.92,WSW,258,9.0,16.0,49,0.00,,CLR,0.00,VWS V14.01,2013-02-12 06:25:00,
2013-02-12 01:30:00,51.9,32.8,29.92,West,274,13.0,13.0,48,0.00,,CLR,0.00,VWS V14.01,2013-02-12 06:30:00,
2013-02-12 01:35:00,52.1,32.5,29.92,West,265,6.0,15.0,47,0.00,,CLR,0.00,VWS V14.01,2013-02-12 06:35:00,
2013-02-12 01:40:00,52.0,32.4,29.92,West,269,4.0,15.0,47,0.00,,CLR,0.00,VWS V14.01,2013-02-12 06:40:00,
2013-02-12 01:45:00,51.7,31.6,29.92,WNW,284,6.0,15.0,46,0.00,,CLR,0.00,VWS V14.01,2013-02-12 06:45:00,
2013-02-12 01:50:00,51.8,31.7,29.93,WSW,253,7.0,15.0,46,0.00,,CLR,0.00,VWS V14.01,2013-02-12 06:50:00,
2013-02-12 01:55:00,51.8,31.7,29.93,West,279,0.0,15.0,46,0.00,,CLR,0.00,VWS V14.01,2013-02-12 06:55:00,
2013-02-12 02:00:00,51.5,32.0,29.93,East,89,0.0,2.0,47,0.00,,CLR,0.00,VWS V14.01,2013-02-12 07:00:00,
2013-02-12 02:05:00,51.2,32.2,29.94,ESE,109,0.0,2.0,48,0.00,,CLR,0.00,VWS V14.01,2013-02-12 07:05:00,
2013-02-12 02:10:00,50.8,32.3,29.94,East,80,0.0,5.0,49,0.00,,CLR,0.00,VWS V14.01,2013-02-12 07:10:00,
2013-02-12 02:15:00,50.4,32.0,29.94,East,96,1.0,5.0,49,0.00,,CLR,0.00,VWS V14.01,2013-02-12 07:15:00,
2013-02-12 02:20:00,50.1,31.7,29.95,East,90,0.0,5.0,49,0.00,,CLR,0.00,VWS V14.01,2013-02-12 07:20:00,
2013-02-12 02:25:00,49.6,32.7,29.95,East,90,0.0,5.0,52,0.00,,CLR,0.00,VWS V14.01,2013-02-12 07:25:00,
2013-02-12 02:30:00,49.0,32.2,29.95,East,82,1.0,2.0,52,0.00,,CLR,0.00,VWS V14.01,2013-02-12 07:30:00,
2013-02-12 02:35:00,48.3,33.8,29.95,East,82,1.0,2.0,57,0.00,,CLR,0.00,VWS V14.01,2013-02-12 07:35:00,
2013-02-12 02:40:00,47.4,33.0,29.96,ENE,77,0.0,3.0,57,0.00,,CLR,0.00,VWS V14.01,2013-02-12 07:40:00,
2013-02-12 02:45:00,47.2,29.5,29.97,NNW,330,1.0,3.0,50,0.00,,CLR,0.00,VWS V14.01,2013-02-12 07:45:00,
2013-02-12 02:50:00,47.0,30.3,29.98,SSE,167,0.0,3.0,52,0.00,,CLR,0.00,VWS V14.01,2013-02-12 07:50:00,
2013-02-12 02:55:00,47.0,29.8,29.97,SE,129,0.0,3.0,51,0.00,,CLR,0.00,VWS V14.01,2013-02-12 07:55:00,
2013-02-12 03:00:00,47.0,30.3,29.97,North,350,1.0,2.0,52,0.00,,CLR,0.00,VWS V14.01,2013-02-12 08:00:00,
2013-02-12 03:05:00,46.5,31.2,29.97,NNW,343,0.0,4.0,55,0.00,,CLR,0.00,VWS V14.01,2013-02-12 08:05:00,
2013-02-12 03:10:00,45.8,31.5,29.97,NW,310,2.0,4.0,57,0.00,,CLR,0.00,VWS V14.01,2013-02-12 08:10:00,
2013-02-12 03:15:00,45.1,30.4,29.97,NW,309,1.0,4.0,56,0.00,,CLR,0.00,VWS V14.01,2013-02-12 08:15:00,
2013-02-12 03:20:00,44.7,29.1,29.97,NW,309,1.0,4.0,54,0.00,,CLR,0.00,VWS V14.01,2013-02-12 08:20:00,
2013-02-12 03:25:00,44.9,27.4,29.97,WNW,291,2.0,7.0,50,0.00,,CLR,0.00,VWS V14.01,2013-02-12 08:25:00,
2013-02-12 03:30:00,45.0,29.8,29.97,WNW,294,2.0,3.0,55,0.00,,CLR,0.00,VWS V14.01,2013-02-12 08:30:00,
2013-02-12 03:35:00,44.9,27.9,29.97,NW,313,5.0,7.0,51,0.00,,CLR,0.00,VWS V14.01,2013-02-12 08:35:00,
2013-02-12 03:40:00,45.3,28.7,29.97,NW,314,2.0,7.0,52,0.00,,CLR,0.00,VWS V14.01,2013-02-12 08:40:00,
2013-02-12 03:45:00,45.5,28.4,29.97,NW,312,1.0,7.0,51,0.00,,CLR,0.00,VWS V14.01,2013-02-12 08:45:00,
2013-02-12 03:50:00,45.5,29.4,29.97,NW,304,1.0,7.0,53,0.00,,CLR,0.00,VWS V14.01,2013-02-12 08:50:00,
2013-02-12 03:55:00,45.2,30.0,29.96,NW,304,1.0,7.0,55,0.00,,CLR,0.00,VWS V14.01,2013-02-12 08:55:00,
2013-02-12 04:00:00,44.8,28.3,29.96,WNW,292,3.0,3.0,52,0.00,,CLR,0.00,VWS V14.01,2013-02-12 09:00:00,
2013-02-12 04:05:00,44.5,29.4,29.97,WNW,285,3.0,6.0,55,0.00,,CLR,0.00,VWS V14.01,2013-02-12 09:05:00,
2013-02-12 04:10:00,44.3,30.0,29.98,WNW,294,2.0,6.0,57,0.00,,CLR,0.00,VWS V14.01,2013-02-12 09:10:00,
2013-02-12 04:15:00,44.4,28.4,29.98,WNW,288,4.0,6.0,53,0.00,,CLR,0.00,VWS V14.01,2013-02-12 09:15:00,
2013-02-12 04:20:00,45.1,29.0,29.98,NW,315,2.0,6.0,53,0.00,,CLR,0.00,VWS V14.01,2013-02-12 09:20:00,
2013-02-12 04:25:00,45.2,28.6,29.98,NW,325,1.0,6.0,52,0.00,,CLR,0.00,VWS V14.01,2013-02-12 09:25:00,
2013-02-12 04:30:00,45.3,28.2,29.98,NW,322,1.0,3.0,51,0.00,,CLR,0.00,VWS V14.01,2013-02-12 09:30:00,
2013-02-12 04:35:00,45.2,29.1,29.98,NNW,329,1.0,3.0,53,0.00,,CLR,0.00,VWS V14.01,2013-02-12 09:35:00,
2013-02-12 04:40:00,45.1,28.5,29.98,NW,323,1.0,4.0,52,0.00,,CLR,0.00,VWS V14.01,2013-02-12 09:40:00,
2013-02-12 04:45:00,44.7,30.0,29.98,NW,313,1.0,4.0,56,0.00,,CLR,0.00,VWS V14.01,2013-02-12 09:45:00,
2013-02-12 04:50:00,44.1,28.5,29.98,NW,311,1.0,4.0,54,0.00,,CLR,0.00,VWS V14.01,2013-02-12 09:50:00,
2013-02-12 04:55:00,43.6,29.8,29.98,WNW,290,3.0,5.0,58,0.00,,CLR,0.00,VWS V14.01,2013-02-12 09:55:00,
2013-02-12 05:00:00,43.0,30.5,29.99,West,270,5.0,5.0,61,0.00,,CLR,0.00,VWS V14.01,2013-02-12 10:00:00,
2013-02-12 05:05:00,42.2,30.5,29.99,WNW,290,2.0,6.0,63,0.00,,CLR,0.00,VWS V14.01,2013-02-12 10:05:00,
2013-02-12 05:10:00,41.8,29.8,29.99,WNW,285,3.0,6.0,62,0.00,,CLR,0.00,VWS V14.01,2013-02-12 10:10:00,
2013-02-12 05:15:00,41.7,29.7,29.99,West,271,0.0,6.0,62,0.00,,CLR,0.00,VWS V14.01,2013-02-12 10:15:00,
2013-02-12 05:20:00,41.6,30.0,29.98,West,278,0.0,6.0,63,0.00,,CLR,0.00,VWS V14.01,2013-02-12 10:20:00,
2013-02-12 05:25:00,41.3,30.8,29.99,WSW,255,3.0,6.0,66,0.00,,CLR,0.00,VWS V14.01,2013-02-12 10:25:00,
2013-02-12 05:30:00,40.7,30.6,29.99,WSW,244,2.0,4.0,67,0.00,,CLR,0.00,VWS V14.01,2013-02-12 10:30:00,
2013-02-12 05:35:00,40.5,30.8,29.99,West,269,1.0,4.0,68,0.00,,CLR,0.00,VWS V14.01,2013-02-12 10:35:00,
2013-02-12 05:40:00,40.3,30.2,29.99,West,267,1.0,4.0,67,0.00,,CLR,0.00,VWS V14.01,2013-02-12 10:40:00,
2013-02-12 05:45:00,40.2,30.1,29.99,NW,306,1.0,4.0,67,0.00,,CLR,0.00,VWS V14.01,2013-02-12 10:45:00,
2013-02-12 05:50:00,40.2,30.1,29.99,West,261,0.0,4.0,67,0.00,,CLR,0.00,VWS V14.01,2013-02-12 10:50:00,
2013-02-12 05:55:00,40.2,30.1,29.99,WSW,250,0.0,4.0,67,0.00,,CLR,0.00,VWS V14.01,2013-02-12 10:55:00,
2013-02-12 06:00:00,40.2,29.8,29.99,SSW,204,0.0,0.0,66,0.00,,CLR,0.00,VWS V14.01,2013-02-12 11:00:00,
2013-02-12 06:05:00,40.6,29.0,29.99,South,189,0.0,1.0,63,0.00,,CLR,0.00,VWS V14.01,2013-02-12 11:05:00,
2013-02-12 06:10:00,41.1,30.2,29.99,South,186,0.0,1.0,65,0.00,,CLR,0.00,VWS V14.01,2013-02-12 11:10:00,
2013-02-12 06:15:00,41.1,29.9,29.99,South,186,0.0,1.0,64,0.00,,CLR,0.00,VWS V14.01,2013-02-12 11:15:00,
2013-02-12 06:20:00,40.9,29.7,29.99,South,186,0.0,1.0,64,0.00,,CLR,0.00,VWS V14.01,2013-02-12 11:20:00,
2013-02-12 06:25:00,40.7,29.5,29.99,South,186,0.0,1.0,64,0.00,,CLR,0.00,VWS V14.01,2013-02-12 11:25:00,
2013-02-12 06:30:00,40.6,29.8,30.00,South,186,0.0,1.0,65,0.00,,BKN049,0.00,VWS V14.01,2013-02-12 11:30:00,
2013-02-12 06:31:00,40.6,30.9,30.00,South,186,0.0,0.0,68,0.00,,CLR,0.00,VWS V14.01,2013-02-12 11:31:00,
2013-02-12 06:36:00,40.2,30.5,30.00,WSW,244,0.0,0.0,68,0.00,,CLR,0.00,VWS V14.01,2013-02-12 11:36:00,
2013-02-12 06:41:00,40.1,29.3,30.00,WSW,244,0.0,0.0,65,0.00,,CLR,0.00,VWS V14.01,2013-02-12 11:41:00,
2013-02-12 06:46:00,40.4,30.3,30.00,SW,230,1.0,2.0,67,0.00,,CLR,0.00,VWS V14.01,2013-02-12 11:46:00,
2013-02-12 06:51:00,40.2,29.4,30.00,SSE,157,0.0,4.0,65,0.00,,CLR,0.00,VWS V14.01,2013-02-12 11:51:00,
2013-02-12 06:56:00,40.1,29.7,30.00,West,260,3.0,6.0,66,0.00,,CLR,0.00,VWS V14.01,2013-02-12 11:56:00,
2013-02-12 07:00:00,40.0,28.8,30.00,WSW,248,0.0,6.0,64,0.00,,BKN049,0.00,VWS V14.01,2013-02-12 12:00:00,
2013-02-12 07:01:00,40.0,31.4,30.00,WSW,249,0.0,3.0,71,0.00,,CLR,0.00,VWS V14.01,2013-02-12 12:01:00,
2013-02-12 07:06:00,39.8,29.0,30.00,WNW,294,4.0,4.0,65,0.00,,CLR,0.00,VWS V14.01,2013-02-12 12:06:00,
2013-02-12 07:11:00,40.3,29.5,30.00,WNW,294,1.0,4.0,65,0.00,,CLR,0.00,VWS V14.01,2013-02-12 12:11:00,
2013-02-12 07:16:00,41.3,28.5,30.00,NW,309,4.0,8.0,60,0.00,,CLR,0.00,VWS V14.01,2013-02-12 12:16:00,
2013-02-12 07:21:00,42.0,29.1,30.00,WSW,256,0.0,8.0,60,0.00,,CLR,0.00,VWS V14.01,2013-02-12 12:21:00,
2013-02-12 07:26:00,42.1,28.4,30.00,SW,229,1.0,8.0,58,0.00,,CLR,0.00,VWS V14.01,2013-02-12 12:26:00,
2013-02-12 07:30:00,42.4,28.3,30.00,SW,232,3.0,8.0,57,0.00,,BKN049,0.00,VWS V14.01,2013-02-12 12:30:00,
2013-02-12 07:31:00,42.6,28.0,30.00,SW,227,3.0,8.0,56,0.00,,CLR,0.00,VWS V14.01,2013-02-12 12:31:00,
2013-02-12 07:36:00,43.3,28.2,30.00,WSW,240,4.0,8.0,55,0.00,,CLR,0.00,VWS V14.01,2013-02-12 12:36:00,
2013-02-12 07:41:00,43.8,27.8,30.01,WNW,287,2.0,8.0,53,0.00,,CLR,0.00,VWS V14.01,2013-02-12 12:41:00,
2013-02-12 07:46:00,44.1,28.5,30.01,WSW,251,2.0,10.0,54,0.00,,CLR,0.00,VWS V14.01,2013-02-12 12:46:00,
2013-02-12 07:51:00,44.4,28.4,30.01,WSW,242,2.0,10.0,53,0.00,,CLR,0.00,VWS V14.01,2013-02-12 12:51:00,
2013-02-12 07:56:00,44.5,28.5,30.01,SSW,210,3.0,10.0,53,0.00,,CLR,0.00,VWS V14.01,2013-02-12 12:56:00,
2013-02-12 08:00:00,44.4,27.4,30.01,SW,220,2.0,10.0,51,0.00,,BKN049,0.00,VWS V14.01,2013-02-12 13:00:00,
2013-02-12 08:01:00,44.5,28.5,30.01,West,263,5.0,5.0,53,0.00,,CLR,0.00,VWS V14.01,2013-02-12 13:01:00,
2013-02-12 08:06:00,44.9,28.8,30.01,WNW,294,1.0,8.0,53,0.00,,CLR,0.00,VWS V14.01,2013-02-12 13:06:00,
2013-02-12 08:11:00,45.2,28.6,30.02,West,271,2.0,9.0,52,0.00,,CLR,0.00,VWS V14.01,2013-02-12 13:11:00,
2013-02-12 08:16:00,45.6,28.5,30.02,WNW,292,2.0,9.0,51,0.00,,CLR,0.00,VWS V14.01,2013-02-12 13:16:00,
2013-02-12 08:21:00,45.9,28.3,30.02,WNW,286,7.0,9.0,50,0.00,,CLR,0.00,VWS V14.01,2013-02-12 13:21:00,
2013-02-12 08:26:00,46.0,29.4,30.02,NNW,341,0.0,9.0,52,0.00,,CLR,0.00,VWS V14.01,2013-02-12 13:26:00,
2013-02-12 08:30:00,45.9,28.8,30.02,West,279,5.0,9.0,51,0.00,,BKN049,0.00,VWS V14.01,2013-02-12 13:30:00,
2013-02-12 08:31:00,45.9,28.3,30.02,WNW,290,3.0,5.0,50,0.00,,CLR,0.00,VWS V14.01,2013-02-12 13:31:00,
2013-02-12 08:36:00,45.8,28.2,30.02,WNW,294,2.0,6.0,50,0.00,,CLR,0.00,VWS V14.01,2013-02-12 13:36:00,
2013-02-12 08:41:00,45.9,28.3,30.03,NW,310,4.0,6.0,50,0.00,,CLR,0.00,VWS V14.01,2013-02-12 13:41:00,
2013-02-12 08:46:00,45.9,28.3,30.03,WNW,301,2.0,7.0,50,0.00,,CLR,0.00,VWS V14.01,2013-02-12 13:46:00,
2013-02-12 08:51:00,45.8,28.7,30.03,WNW,296,2.0,7.0,51,0.00,,CLR,0.00,VWS V14.01,2013-02-12 13:51:00,
2013-02-12 08:56:00,46.3,29.2,30.03,WNW,285,2.0,7.0,51,0.00,,CLR,0.00,VWS V14.01,2013-02-12 13:56:00,
2013-02-12 09:00:00,46.8,29.2,30.03,NW,307,4.0,8.0,50,0.00,,BKN049,0.00,VWS V14.01,2013-02-12 14:00:00,
2013-02-12 09:01:00,46.9,28.8,30.03,WNW,297,4.0,4.0,49,0.00,,CLR,0.00,VWS V14.01,2013-02-12 14:01:00,
2013-02-12 09:06:00,47.3,28.6,30.03,NW,313,2.0,5.0,48,0.00,,CLR,0.00,VWS V14.01,2013-02-12 14:06:00,
2013-02-12 09:11:00,47.7,29.5,30.03,WNW,300,2.0,7.0,49,0.00,,CLR,0.00,VWS V14.01,2013-02-12 14:11:00,
2013-02-12 09:16:00,48.2,30.0,30.02,NW,311,3.0,8.0,49,0.00,,CLR,0.00,VWS V14.01,2013-02-12 14:16:00,
2013-02-12 09:21:00,48.5,28.1,30.03,NW,325,2.0,8.0,45,0.00,,CLR,0.00,VWS V14.01,2013-02-12 14:21:00,
2013-02-12 09:26:00,48.4,29.1,30.03,West,259,2.0,8.0,47,0.00,,CLR,0.00,VWS V14.01,2013-02-12 14:26:00,
2013-02-12 09:30:00,48.4,28.6,30.02,West,275,1.0,10.0,46,0.00,,BKN049,0.00,VWS V14.01,2013-02-12 14:30:00,
2013-02-12 09:31:00,48.5,30.7,30.03,WNW,294,3.0,3.0,50,0.00,,CLR,0.00,VWS V14.01,2013-02-12 14:31:00,
2013-02-12 09:36:00,48.6,29.3,30.03,NW,309,3.0,8.0,47,0.00,,CLR,0.00,VWS V14.01,2013-02-12 14:36:00,
2013-02-12 09:41:00,48.7,28.9,30.03,NW,305,5.0,8.0,46,0.00,,CLR,0.00,VWS V14.01,2013-02-12 14:41:00,
2013-02-12 09:46:00,48.9,28.5,30.02,NW,318,5.0,8.0,45,0.00,,CLR,0.00,VWS V14.01,2013-02-12 14:46:00,
2013-02-12 09:51:00,49.4,29.0,30.02,West,269,3.0,9.0,45,0.00,,CLR,0.00,VWS V14.01,2013-02-12 14:51:00,
2013-02-12 09:56:00,49.9,28.9,30.02,NW,325,2.0,9.0,44,0.00,,CLR,0.00,VWS V14.01,2013-02-12 14:56:00,
2013-02-12 10:00:00,50.0,29.0,30.02,NW,324,3.0,9.0,44,0.00,,BKN049,0.00,VWS V14.01,2013-02-12 15:00:00,
2013-02-12 10:01:00,50.0,29.5,30.02,NW,307,4.0,4.0,45,0.00,,CLR,0.00,VWS V14.01,2013-02-12 15:01:00,
2013-02-12 10:06:00,49.8,27.6,30.03,WNW,283,4.0,8.0,42,0.00,,CLR,0.00,VWS V14.01,2013-02-12 15:06:00,
2013-02-12 10:11:00,50.2,29.7,30.03,WSW,257,4.0,8.0,45,0.00,,CLR,0.00,VWS V14.01,2013-02-12 15:11:00,
2013-02-12 10:16:00,50.9,29.2,30.04,NW,309,3.0,8.0,43,0.00,,CLR,0.00,VWS V14.01,2013-02-12 15:16:00,
2013-02-12 10:21:00,51.3,27.8,30.04,WSW,240,9.0,9.0,40,0.00,,CLR,0.00,VWS V14.01,2013-02-12 15:21:00,
2013-02-12 10:26:00,51.7,28.2,30.04,WSW,244,9.0,9.0,40,0.00,,CLR,0.00,VWS V14.01,2013-02-12 15:26:00,
2013-02-12 10:30:00,51.7,29.4,30.04,WNW,290,4.0,11.0,42,0.00,,BKN049,0.00,VWS V14.01,2013-02-12 15:30:00,
2013-02-12 10:31:00,51.8,28.9,30.04,WNW,296,5.0,7.0,41,0.00,,CLR,0.00,VWS V14.01,2013-02-12 15:31:00,
2013-02-12 10:36:00,52.3,28.7,30.04,SW,234,4.0,7.0,40,0.00,,CLR,0.00,VWS V14.01,2013-02-12 15:36:00,
2013-02-12 10:41:00,53.0,28.7,30.05,SW,219,10.0,15.0,39,0.00,,CLR,0.00,VWS V14.01,2013-02-12 15:41:00,
2013-02-12 10:46:00,52.7,27.2,30.05,NW,311,3.0,15.0,37,0.00,,CLR,0.00,VWS V14.01,2013-02-12 15:46:00,
2013-02-12 10:51:00,53.2,28.3,30.05,WNW,298,1.0,15.0,38,0.00,,CLR,0.00,VWS V14.01,2013-02-12 15:51:00,
2013-02-12 10:56:00,53.0,28.1,30.05,West,278,2.0,15.0,38,0.00,,CLR,0.00,VWS V14.01,2013-02-12 15:56:00,
2013-02-12 11:00:00,52.7,26.5,30.05,SW,236,8.0,15.0,36,0.00,,BKN049,0.00,VWS V14.01,2013-02-12 16:00:00,
2013-02-12 11:01:00,52.6,28.4,30.05,SW,230,7.0,9.0,39,0.00,,CLR,0.00,VWS V14.01,2013-02-12 16:01:00,
2013-02-12 11:06:00,52.9,27.4,30.05,WNW,300,5.0,11.0,37,0.00,,CLR,0.00,VWS V14.01,2013-02-12 16:06:00,
2013-02-12 11:11:00,53.5,27.9,30.05,SW,236,11.0,11.0,37,0.00,,CLR,0.00,VWS V14.01,2013-02-12 16:11:00,
2013-02-12 11:16:00,52.7,28.5,30.05,WSW,253,11.0,14.0,39,0.00,,CLR,0.00,VWS V14.01,2013-02-12 16:16:00,
2013-02-12 11:21:00,52.3,26.8,30.05,WSW,257,8.0,14.0,37,0.00,,CLR,0.00,VWS V14.01,2013-02-12 16:21:00,
2013-02-12 11:26:00,52.2,26.7,30.05,West,274,4.0,14.0,37,0.00,,CLR,0.00,VWS V14.01,2013-02-12 16:26:00,
2013-02-12 11:30:00,52.2,27.4,30.05,WSW,248,4.0,14.0,38,0.00,,BKN049,0.00,VWS V14.01,2013-02-12 16:30:00,
2013-02-12 11:31:00,52.2,26.1,30.04,WSW,254,7.0,10.0,36,0.00,,CLR,0.00,VWS V14.01,2013-02-12 16:31:00,
2013-02-12 11:36:00,52.2,26.7,30.05,WSW,243,10.0,13.0,37,0.00,,CLR,0.00,VWS V14.01,2013-02-12 16:36:00,
2013-02-12 11:41:00,52.1,26.6,30.04,WSW,243,3.0,14.0,37,0.00,,CLR,0.00,VWS V14.01,2013-02-12 16:41:00,
2013-02-12 11:46:00,52.3,26.2,30.04,WSW,246,3.0,14.0,36,0.00,,CLR,0.00,VWS V14.01,2013-02-12 16:46:00,
2013-02-12 11:51:00,52.6,25.8,30.04,WSW,257,6.0,14.0,35,0.00,,CLR,0.00,VWS V14.01,2013-02-12 16:51:00,
2013-02-12 11:56:00,52.8,26.6,30.03,West,259,4.0,14.0,36,0.00,,CLR,0.00,VWS V14.01,2013-02-12 16:56:00,
2013-02-12 12:00:00,52.9,28.0,30.03,SW,219,10.0,14.0,38,0.00,,BKN049,0.00,VWS V14.01,2013-02-12 17:00:00,
2013-02-12 12:01:00,52.9,27.4,30.03,SW,231,9.0,12.0,37,0.00,,CLR,0.00,VWS V14.01,2013-02-12 17:01:00,
2013-02-12 12:06:00,53.0,28.7,30.03,SSW,208,10.0,14.0,39,0.00,,CLR,0.00,VWS V14.01,2013-02-12 17:06:00,
2013-02-12 12:11:00,52.9,27.4,30.02,WSW,246,11.0,14.0,37,0.00,,CLR,0.00,VWS V14.01,2013-02-12 17:11:00,
2013-02-12 12:16:00,53.2,26.3,30.02,SW,229,4.0,14.0,35,0.00,,CLR,0.00,VWS V14.01,2013-02-12 17:16:00,
2013-02-12 12:21:00,53.6,26.6,30.01,NW,304,4.0,14.0,35,0.00,,CLR,0.00,VWS V14.01,2013-02-12 17:21:00,
2013-02-12 12:26:00,54.3,28.6,30.00,West,274,6.0,14.0,37,0.00,,CLR,0.00,VWS V14.01,2013-02-12 17:26:00,
2013-02-12 12:30:00,54.9,29.1,30.00,SSW,209,7.0,14.0,37,0.00,,BKN049,0.00,VWS V14.01,2013-02-12 17:30:00,
2013-02-12 12:31:00,55.0,29.2,30.00,NNW,329,3.0,9.0,37,0.00,,CLR,0.00,VWS V14.01,2013-02-12 17:31:00,
2013-02-12 12:36:00,55.1,28.0,29.99,SW,229,5.0,9.0,35,0.00,,CLR,0.00,VWS V14.01,2013-02-12 17:36:00,
2013-02-12 12:41:00,55.4,26.8,29.99,WNW,289,3.0,9.0,33,0.00,,CLR,0.00,VWS V14.01,2013-02-12 17:41:00,
2013-02-12 12:46:00,54.9,26.4,29.98,West,259,2.0,10.0,33,0.00,,CLR,0.00,VWS V14.01,2013-02-12 17:46:00,
2013-02-12 12:51:00,55.2,26.6,29.97,NW,314,4.0,10.0,33,0.00,,CLR,0.00,VWS V14.01,2013-02-12 17:51:00,
2013-02-12 12:56:00,55.3,26.7,29.95,North,5,0.0,10.0,33,0.00,,CLR,0.00,VWS V14.01,2013-02-12 17:56:00,
2013-02-12 13:00:00,55.2,25.9,29.95,SSE,167,2.0,10.0,32,0.00,,BKN049,0.00,VWS V14.01,2013-02-12 18:00:00,
2013-02-12 13:01:00,55.2,28.0,29.95,SE,135,0.0,3.0,35,0.00,,CLR,0.00,VWS V14.01,2013-02-12 18:01:00,
2013-02-12 13:06:00,55.3,28.1,29.95,West,281,4.0,5.0,35,0.00,,CLR,0.00,VWS V14.01,2013-02-12 18:06:00,
2013-02-12 13:11:00,55.9,28.0,29.95,WNW,286,2.0,6.0,34,0.00,,CLR,0.00,VWS V14.01,2013-02-12 18:11:00,
2013-02-12 13:16:00,56.1,27.4,29.95,North,350,2.0,6.0,33,0.00,,CLR,0.00,VWS V14.01,2013-02-12 18:16:00,
2013-02-12 13:21:00,55.9,26.5,29.96,WNW,295,0.0,9.0,32,0.00,,CLR,0.00,VWS V14.01,2013-02-12 18:21:00,
2013-02-12 13:26:00,55.8,25.6,29.95,South,178,2.0,9.0,31,0.00,,CLR,0.00,VWS V14.01,2013-02-12 18:26:00,
2013-02-12 13:30:00,55.6,27.7,29.93,South,186,2.0,9.0,34,0.00,,BKN049,0.00,VWS V14.01,2013-02-12 18:30:00,
2013-02-12 13:31:00,55.7,28.5,29.94,SSW,212,6.0,7.0,35,0.00,,CLR,0.00,VWS V14.01,2013-02-12 18:31:00,
2013-02-12 13:36:00,55.7,25.5,29.96,WSW,258,2.0,10.0,31,0.00,,CLR,0.00,VWS V14.01,2013-02-12 18:36:00,
2013-02-12 13:41:00,56.2,27.5,29.97,SW,235,6.0,10.0,33,0.00,,CLR,0.00,VWS V14.01,2013-02-12 18:41:00,
2013-02-12 13:46:00,56.2,27.5,29.97,SW,223,6.0,12.0,33,0.00,,CLR,0.00,VWS V14.01,2013-02-12 18:46:00,
2013-02-12 13:51:00,56.9,28.8,29.98,SW,234,9.0,16.0,34,0.00,,CLR,0.00,VWS V14.01,2013-02-12 18:51:00,
2013-02-12 13:56:00,56.8,28.0,29.98,SW,230,10.0,16.0,33,0.00,,CLR,0.00,VWS V14.01,2013-02-12 18:56:00,
2013-02-12 14:00:00,56.9,26.6,29.98,SW,227,6.0,16.0,31,0.00,,BKN049,0.00,VWS V14.01,2013-02-12 19:00:00,
2013-02-12 14:01:00,56.9,29.5,29.98,SSW,196,7.0,11.0,35,0.00,,CLR,0.00,VWS V14.01,2013-02-12 19:01:00,
2013-02-12 14:06:00,57.3,25.3,29.98,West,269,8.0,11.0,29,0.00,,CLR,0.00,VWS V14.01,2013-02-12 19:06:00,
2013-02-12 14:11:00,57.2,26.9,29.98,SW,219,11.0,12.0,31,0.00,,CLR,0.00,VWS V14.01,2013-02-12 19:11:00,
2013-02-12 14:16:00,57.3,26.2,29.98,WNW,302,4.0,12.0,30,0.00,,CLR,0.00,VWS V14.01,2013-02-12 19:16:00,
2013-02-12 14:21:00,57.6,26.4,29.97,SW,230,6.0,12.0,30,0.00,,CLR,0.00,VWS V14.01,2013-02-12 19:21:00,
2013-02-12 14:26:00,57.8,28.9,29.98,SW,219,9.0,15.0,33,0.00,,CLR,0.00,VWS V14.01,2013-02-12 19:26:00,
2013-02-12 14:30:00,57.8,27.4,29.98,WSW,242,6.0,15.0,31,0.00,,BKN049,0.00,VWS V14.01,2013-02-12 19:30:00,
2013-02-12 14:31:00,57.8,27.4,29.98,SW,223,6.0,6.0,31,0.00,,CLR,0.00,VWS V14.01,2013-02-12 19:31:00,
2013-02-12 14:36:00,57.7,28.1,29.97,West,259,9.0,10.0,32,0.00,,CLR,0.00,VWS V14.01,2013-02-12 19:36:00,
2013-02-12 14:41:00,57.6,26.4,29.97,WSW,256,4.0,10.0,30,0.00,,CLR,0.00,VWS V14.01,2013-02-12 19:41:00,
2013-02-12 14:46:00,58.0,28.3,29.96,SW,223,2.0,10.0,32,0.00,,CLR,0.00,VWS V14.01,2013-02-12 19:46:00,
2013-02-12 14:51:00,58.3,27.8,29.96,SW,220,12.0,12.0,31,0.00,,CLR,0.00,VWS V14.01,2013-02-12 19:51:00,
2013-02-12 14:56:00,57.7,27.3,29.96,SSW,209,9.0,14.0,31,0.00,,CLR,0.00,VWS V14.01,2013-02-12 19:56:00,
2013-02-12 15:00:00,57.3,27.0,29.96,SW,215,9.0,14.0,31,0.00,,BKN049,0.00,VWS V14.01,2013-02-12 20:00:00,
2013-02-12 15:01:00,57.2,29.1,29.97,WSW,238,8.0,10.0,34,0.00,,CLR,0.00,VWS V14.01,2013-02-12 20:01:00,
2013-02-12 15:06:00,57.1,26.0,29.96,West,263,4.0,10.0,30,0.00,,CLR,0.00,VWS V14.01,2013-02-12 20:06:00,
2013-02-12 15:11:00,57.3,28.5,29.96,SSW,201,6.0,10.0,33,0.00,,CLR,0.00,VWS V14.01,2013-02-12 20:11:00,
2013-02-12 15:16:00,57.3,27.7,29.96,SW,230,8.0,10.0,32,0.00,,CLR,0.00,VWS V14.01,2013-02-12 20:16:00,
2013-02-12 15:21:00,57.4,27.8,29.96,WNW,282,1.0,10.0,32,0.00,,CLR,0.00,VWS V14.01,2013-02-12 20:21:00,
2013-02-12 15:26:00,57.5,26.3,29.96,WNW,290,4.0,10.0,30,0.00,,CLR,0.00,VWS V14.01,2013-02-12 20:26:00,
2013-02-12 15:30:00,57.6,27.2,29.95,WNW,298,1.0,10.0,31,0.00,,BKN049,0.00,VWS V14.01,2013-02-12 20:30:00,
2013-02-12 15:31:00,57.7,28.1,29.95,WNW,298,1.0,2.0,32,0.00,,CLR,0.00,VWS V14.01,2013-02-12 20:31:00,
2013-02-12 15:36:00,57.7,25.7,29.95,SW,233,6.0,8.0,29,0.00,,CLR,0.00,VWS V14.01,2013-02-12 20:36:00,
2013-02-12 15:41:00,57.6,25.6,29.95,WNW,289,2.0,8.0,29,0.00,,CLR,0.00,VWS V14.01,2013-02-12 20:41:00,
2013-02-12 15:46:00,57.5,26.3,29.94,WNW,300,2.0,8.0,30,0.00,,CLR,0.00,VWS V14.01,2013-02-12 20:46:00,
2013-02-12 15:51:00,57.5,26.3,29.94,WSW,243,5.0,8.0,30,0.00,,CLR,0.00,VWS V14.01,2013-02-12 20:51:00,
2013-02-12 15:56:00,57.4,26.2,29.94,West,279,2.0,8.0,30,0.00,,CLR,0.00,VWS V14.01,2013-02-12 20:56:00,
2013-02-12 16:00:00,57.3,25.3,29.95,WSW,246,4.0,8.0,29,0.00,,BKN049,0.00,VWS V14.01,2013-02-12 21:00:00,
2013-02-12 16:01:00,57.3,25.3,29.95,West,262,3.0,4.0,29,0.00,,CLR,0.00,VWS V14.01,2013-02-12 21:01:00,
2013-02-12 16:06:00,57.2,28.4,29.95,West,275,2.0,4.0,33,0.00,,CLR,0.00,VWS V14.01,2013-02-12 21:06:00,
2013-02-12 16:11:00,57.2,25.2,29.95,West,271,1.0,5.0,29,0.00,,CLR,0.00,VWS V14.01,2013-02-12 21:11:00,
2013-02-12 16:16:00,57.2,27.6,29.96,West,281,3.0,5.0,32,0.00,,CLR,0.00,VWS V14.01,2013-02-12 21:16:00,
2013-02-12 16:21:00,57.1,29.7,29.96,SW,222,1.0,5.0,35,0.00,,CLR,0.00,VWS V14.01,2013-02-12 21:21:00,
2013-02-12 16:26:00,56.9,30.2,29.96,SW,227,1.0,5.0,36,0.00,,CLR,0.00,VWS V14.01,2013-02-12 21:26:00,
2013-02-12 16:30:00,56.8,29.5,29.97,SW,219,3.0,5.0,35,0.00,,BKN049,0.00,VWS V14.01,2013-02-12 21:30:00,
2013-02-12 16:31:00,56.7,30.7,29.96,SW,219,2.0,3.0,37,0.00,,CLR,0.00,VWS V14.01,2013-02-12 21:31:00,
2013-02-12 16:36:00,56.6,29.3,29.97,SW,235,3.0,4.0,35,0.00,,CLR,0.00,VWS V14.01,2013-02-12 21:36:00,
2013-02-12 16:41:00,56.5,29.9,29.97,West,261,1.0,4.0,36,0.00,,CLR,0.00,VWS V14.01,2013-02-12 21:41:00,
2013-02-12 16:46:00,56.4,27.7,29.96,WSW,252,2.0,4.0,33,0.00,,CLR,0.00,VWS V14.01,2013-02-12 21:46:00,
2013-02-12 16:51:00,56.2,28.2,29.96,WSW,239,3.0,5.0,34,0.00,,CLR,0.00,VWS V14.01,2013-02-12 21:51:00,
2013-02-12 16:56:00,56.2,29.6,29.96,West,272,2.0,5.0,36,0.00,,CLR,0.00,VWS V14.01,2013-02-12 21:56:00,
2013-02-12 17:00:00,56.0,30.1,29.96,West,272,1.0,5.0,37,0.00,,BKN049,0.00,VWS V14.01,2013-02-12 22:00:00,
2013-02-12 17:01:00,55.9,30.0,29.96,SSW,200,2.0,2.0,37,0.00,,CLR,0.00,VWS V14.01,2013-02-12 22:01:00,
2013-02-12 17:06:00,55.6,29.8,29.97,South,184,2.0,3.0,37,0.00,,CLR,0.00,VWS V14.01,2013-02-12 22:06:00,
2013-02-12 17:11:00,55.3,29.5,29.97,South,183,3.0,3.0,37,0.00,,CLR,0.00,VWS V14.01,2013-02-12 22:11:00,
2013-02-12 17:16:00,55.1,28.0,29.97,South,183,0.0,3.0,35,0.00,,CLR,0.00,VWS V14.01,2013-02-12 22:16:00,
2013-02-12 17:21:00,55.0,28.6,29.97,South,183,0.0,3.0,36,0.00,,CLR,0.00,VWS V14.01,2013-02-12 22:21:00,
2013-02-12 17:26:00,54.8,29.7,29.96,South,183,0.0,3.0,38,0.00,,CLR,0.00,VWS V14.01,2013-02-12 22:26:00,
2013-02-12 17:30:00,54.7,29.0,29.95,South,183,0.0,3.0,37,0.00,,BKN049,0.00,VWS V14.01,2013-02-12 22:30:00,
2013-02-12 17:31:00,54.6,29.5,29.95,South,183,0.0,0.0,38,0.00,,CLR,0.00,VWS V14.01,2013-02-12 22:31:00,
2013-02-12 17:36:00,54.5,28.8,29.95,South,183,0.0,0.0,37,0.00,,CLR,0.00,VWS V14.01,2013-02-12 22:36:00,
2013-02-12 17:41:00,54.2,31.6,29.95,South,183,0.0,1.0,42,0.00,,CLR,0.00,VWS V14.01,2013-02-12 22:41:00,
2013-02-12 17:46:00,53.7,31.8,29.95,South,183,0.0,1.0,43,0.00,,CLR,0.00,VWS V14.01,2013-02-12 22:46:00,
2013-02-12 17:51:00,53.2,28.9,29.94,South,183,0.0,2.0,39,0.00,,CLR,0.00,VWS V14.01,2013-02-12 22:51:00,
2013-02-12 17:56:00,53.1,27.5,29.93,SSE,168,0.0,2.0,37,0.00,,CLR,0.00,VWS V14.01,2013-02-12 22:56:00,
2013-02-12 18:00:00,53.1,28.2,29.93,SSE,168,0.0,2.0,38,0.00,,BKN049,0.00,VWS V14.01,2013-02-12 23:00:00,
2013-02-12 18:01:00,53.0,31.7,29.95,SSE,168,0.0,1.0,44,0.00,,CLR,0.00,VWS V14.01,2013-02-12 23:01:00,
2013-02-12 18:06:00,52.1,34.0,29.95,SSE,168,0.0,2.0,50,0.00,,CLR,0.00,VWS V14.01,2013-02-12 23:06:00,
2013-02-12 18:11:00,51.4,37.1,29.96,SSE,168,0.0,2.0,58,0.00,,CLR,0.00,VWS V14.01,2013-02-12 23:11:00,
2013-02-12 18:16:00,50.8,34.8,29.95,SSE,168,0.0,2.0,54,0.00,,CLR,0.00,VWS V14.01,2013-02-12 23:16:00,
2013-02-12 18:21:00,50.6,32.7,29.95,SSE,168,0.0,2.0,50,0.00,,CLR,0.00,VWS V14.01,2013-02-12 23:21:00,
2013-02-12 18:26:00,50.6,31.6,29.94,SSE,168,0.0,2.0,48,0.00,,CLR,0.00,VWS V14.01,2013-02-12 23:26:00,
2013-02-12 18:30:00,50.6,33.2,29.96,SSE,168,0.0,2.0,51,0.00,,BKN049,0.00,VWS V14.01,2013-02-12 23:30:00,
2013-02-12 18:31:00,50.6,33.2,29.95,SSE,168,0.0,0.0,51,0.00,,CLR,0.00,VWS V14.01,2013-02-12 23:31:00,
2013-02-12 18:36:00,50.4,33.0,29.95,SSE,168,0.0,0.0,51,0.00,,CLR,0.00,VWS V14.01,2013-02-12 23:36:00,
2013-02-12 18:41:00,49.9,37.8,29.95,SSE,168,0.0,0.0,63,0.00,,CLR,0.00,VWS V14.01,2013-02-12 23:41:00,
2013-02-12 18:47:00,49.4,36.1,29.95,SSE,168,0.0,0.0,60,0.00,,CLR,0.00,VWS V14.01,2013-02-12 23:47:00,
2013-02-12 18:52:00,49.2,34.6,29.94,SSE,168,0.0,0.0,57,0.00,,CLR,0.00,VWS V14.01,2013-02-12 23:52:00,
2013-02-12 18:57:00,49.1,33.7,29.94,SSE,168,0.0,0.0,55,0.00,,CLR,0.00,VWS V14.01,2013-02-12 23:57:00,
2013-02-12 19:00:00,49.1,35.0,29.94,SSE,168,0.0,0.0,58,0.00,,BKN049,0.00,VWS V14.01,2013-02-13 00:00:00,
2013-02-12 19:02:00,49.0,35.3,29.93,SSE,168,0.0,0.0,59,0.00,,CLR,0.00,VWS V14.01,2013-02-13 00:02:00,
2013-02-12 19:07:00,48.8,35.5,29.94,SSE,168,0.0,0.0,60,0.00,,CLR,0.00,VWS V14.01,2013-02-13 00:07:00,
2013-02-12 19:12:00,48.4,36.8,29.93,SSE,168,0.0,0.0,64,0.00,,CLR,0.00,VWS V14.01,2013-02-13 00:12:00,
2013-02-12 19:17:00,47.9,37.1,29.94,SSE,168,0.0,0.0,66,0.00,,CLR,0.00,VWS V14.01,2013-02-13 00:17:00,
2013-02-12 19:22:00,47.6,37.6,29.93,SSE,168,0.0,0.0,68,0.00,,CLR,0.00,VWS V14.01,2013-02-13 00:22:00,
2013-02-12 19:27:00,47.3,35.8,29.92,SSE,168,0.0,0.0,64,0.00,,CLR,0.00,VWS V14.01,2013-02-13 00:27:00,
2013-02-12 19:30:00,47.2,35.3,29.92,SSE,168,0.0,0.0,63,0.00,,BKN049,0.00,VWS V14.01,2013-02-13 00:30:00,
2013-02-12 19:32:00,47.2,34.5,29.92,SSE,168,0.0,0.0,61,0.00,,CLR,0.00,VWS V14.01,2013-02-13 00:32:00,
2013-02-12 19:37:00,47.1,36.0,29.92,SSE,168,0.0,0.0,65,0.00,,CLR,0.00,VWS V14.01,2013-02-13 00:37:00,
2013-02-12 19:42:00,46.9,37.6,29.93,SSE,168,0.0,0.0,70,0.00,,CLR,0.00,VWS V14.01,2013-02-13 00:42:00,
2013-02-12 19:47:00,46.3,37.8,29.94,SSE,168,0.0,0.0,72,0.00,,CLR,0.00,VWS V14.01,2013-02-13 00:47:00,
2013-02-12 19:52:00,46.0,37.1,29.92,SSE,168,0.0,0.0,71,0.00,,CLR,0.00,VWS V14.01,2013-02-13 00:52:00,
2013-02-12 19:57:00,45.9,36.7,29.92,SSE,168,0.0,0.0,70,0.00,,CLR,0.00,VWS V14.01,2013-02-13 00:57:00,
2013-02-12 20:00:00,45.9,35.2,29.91,SSE,168,0.0,0.0,66,0.00,,BKN049,0.00,VWS V14.01,2013-02-13 01:00:00,
2013-02-12 20:02:00,45.9,35.2,29.91,SSE,168,0.0,0.0,66,0.00,,CLR,0.00,VWS V14.01,2013-02-13 01:02:00,
2013-02-12 20:07:00,46.1,35.8,29.90,SSE,168,0.0,0.0,67,0.00,,CLR,0.00,VWS V14.01,2013-02-13 01:07:00,
2013-02-12 20:12:00,46.1,36.5,29.90,SSE,168,0.0,0.0,69,0.00,,CLR,0.00,VWS V14.01,2013-02-13 01:12:00,
2013-02-12 20:17:00,46.0,37.1,29.91,SSE,168,0.0,0.0,71,0.00,,CLR,0.00,VWS V14.01,2013-02-13 01:17:00,
2013-02-12 20:22:00,45.6,38.2,29.91,SSE,168,0.0,1.0,75,0.00,,CLR,0.00,VWS V14.01,2013-02-13 01:22:00,
2013-02-12 20:27:00,45.2,36.4,29.91,SSE,168,0.0,1.0,71,0.00,,CLR,0.00,VWS V14.01,2013-02-13 01:27:00,
2013-02-12 20:30:00,45.1,35.9,29.92,SSE,168,1.0,2.0,70,0.00,,BKN049,0.00,VWS V14.01,2013-02-13 01:30:00,
2013-02-12 20:32:00,45.1,36.3,29.92,SSE,168,0.0,1.0,71,0.00,,CLR,0.00,VWS V14.01,2013-02-13 01:32:00,
2013-02-12 20:37:00,45.1,36.3,29.93,SSE,168,0.0,1.0,71,0.00,,CLR,0.00,VWS V14.01,2013-02-13 01:37:00,
2013-02-12 20:42:00,45.1,36.6,29.93,SSE,168,0.0,1.0,72,0.00,,CLR,0.00,VWS V14.01,2013-02-13 01:42:00,
2013-02-12 20:47:00,45.1,36.6,29.94,SSE,168,0.0,1.0,72,0.00,,CLR,0.00,VWS V14.01,2013-02-13 01:47:00,
2013-02-12 20:52:00,45.1,37.3,29.95,SSE,168,0.0,1.0,74,0.00,,CLR,0.00,VWS V14.01,2013-02-13 01:52:00,
2013-02-12 20:57:00,45.1,36.6,29.95,SSE,168,0.0,1.0,72,0.00,,CLR,0.00,VWS V14.01,2013-02-13 01:57:00,
2013-02-12 21:00:00,45.0,37.2,29.95,SSE,168,0.0,1.0,74,0.00,,BKN049,0.00,VWS V14.01,2013-02-13 02:00:00,
2013-02-12 21:02:00,45.0,37.9,29.95,SSE,168,0.0,0.0,76,0.00,,FEW120,0.00,VWS V14.01,2013-02-13 02:02:00,
2013-02-12 21:07:00,45.0,37.6,29.95,SSE,168,0.0,0.0,75,0.00,,FEW120,0.00,VWS V14.01,2013-02-13 02:07:00,
2013-02-12 21:12:00,45.0,37.9,29.95,SSE,168,0.0,0.0,76,0.00,,FEW120,0.00,VWS V14.01,2013-02-13 02:12:00,
2013-02-12 21:17:00,44.9,37.8,29.96,SSE,168,0.0,0.0,76,0.00,,FEW120,0.00,VWS V14.01,2013-02-13 02:17:00,
2013-02-12 21:22:00,44.8,37.7,29.96,SSE,168,0.0,0.0,76,0.00,,FEW120,0.00,VWS V14.01,2013-02-13 02:22:00,
2013-02-12 21:27:00,44.7,38.3,29.96,SSE,168,0.0,1.0,78,0.00,,FEW120,0.00,VWS V14.01,2013-02-13 02:27:00,
2013-02-12 21:30:00,44.6,37.8,29.96,SSE,150,1.0,2.0,77,0.00,,BKN049,0.00,VWS V14.01,2013-02-13 02:30:00,
2013-02-12 21:32:00,44.5,35.0,29.96,SSE,147,1.0,3.0,69,0.00,,FEW120,0.00,VWS V14.01,2013-02-13 02:32:00,
2013-02-12 21:37:00,45.0,33.6,29.96,SE,146,0.0,3.0,64,0.00,,FEW120,0.00,VWS V14.01,2013-02-13 02:37:00,
2013-02-12 21:42:00,45.8,32.7,29.95,SE,144,1.0,3.0,60,0.00,,FEW120,0.00,VWS V14.01,2013-02-13 02:42:00,
2013-02-12 21:47:00,46.6,33.5,29.95,SSE,165,3.0,3.0,60,0.00,,FEW120,0.00,VWS V14.01,2013-02-13 02:47:00,
2013-02-12 21:52:00,46.9,36.2,29.96,South,169,1.0,3.0,66,0.00,,FEW120,0.00,VWS V14.01,2013-02-13 02:52:00,
2013-02-12 21:57:00,46.7,36.0,29.96,SSE,154,2.0,3.0,66,0.00,,FEW120,0.00,VWS V14.01,2013-02-13 02:57:00,
2013-02-12 22:00:00,46.5,35.4,29.96,SSE,155,2.0,5.0,65,0.00,,BKN049,0.00,VWS V14.01,2013-02-13 03:00:00,
2013-02-12 22:02:00,46.6,33.5,29.96,South,169,2.0,5.0,60,0.00,,OVC110,0.00,VWS V14.01,2013-02-13 03:02:00,
2013-02-12 22:07:00,46.9,33.8,29.96,SSE,167,1.0,5.0,60,0.00,,OVC110,0.00,VWS V14.01,2013-02-13 03:07:00,
2013-02-12 22:12:00,47.0,34.7,29.96,South,186,0.0,5.0,62,0.00,,OVC110,0.00,VWS V14.01,2013-02-13 03:12:00,
2013-02-12 22:17:00,47.0,33.8,29.96,South,171,1.0,5.0,60,0.00,,OVC110,0.00,VWS V14.01,2013-02-13 03:17:00,
2013-02-12 22:22:00,47.2,32.8,29.95,South,191,0.0,5.0,57,0.00,,OVC110,0.00,VWS V14.01,2013-02-13 03:22:00,
2013-02-12 22:27:00,47.4,33.4,29.95,SSE,167,2.0,5.0,58,0.00,,OVC110,0.00,VWS V14.01,2013-02-13 03:27:00,
2013-02-12 22:30:00,47.4,33.4,29.94,South,182,1.0,5.0,58,0.00,,BKN049,0.00,VWS V14.01,2013-02-13 03:30:00,
2013-02-12 22:32:00,47.4,32.5,29.94,South,188,0.0,2.0,56,0.00,,OVC110,0.00,VWS V14.01,2013-02-13 03:32:00,
2013-02-12 22:37:00,47.6,33.1,29.93,South,188,2.0,3.0,57,0.00,,OVC110,0.00,VWS V14.01,2013-02-13 03:37:00,
2013-02-12 22:42:00,47.4,36.6,29.93,SSE,157,2.0,3.0,66,0.00,,OVC110,0.00,VWS V14.01,2013-02-13 03:42:00,
2013-02-12 22:47:00,47.0,33.8,29.92,SSE,147,3.0,6.0,60,0.00,,OVC110,0.00,VWS V14.01,2013-02-13 03:47:00,
2013-02-12 22:52:00,47.2,33.2,29.92,SE,146,2.0,6.0,58,0.00,,OVC110,0.00,VWS V14.01,2013-02-13 03:52:00,
2013-02-12 22:57:00,47.6,33.1,29.92,SSE,153,1.0,6.0,57,0.00,,OVC110,0.00,VWS V14.01,2013-02-13 03:57:00,
2013-02-12 23:00:00,47.8,32.9,29.92,SE,142,4.0,6.0,56,0.00,,BKN049,0.00,VWS V14.01,2013-02-13 04:00:00,
2013-02-12 23:02:00,48.0,32.6,29.91,South,176,3.0,6.0,55,0.00,,OVC085,0.00,VWS V14.01,2013-02-13 04:02:00,
2013-02-12 23:07:00,48.3,36.3,29.92,West,275,5.0,6.0,63,0.00,,OVC085,0.00,VWS V14.01,2013-02-13 04:07:00,
2013-02-12 23:12:00,47.6,34.4,29.93,WNW,296,1.0,6.0,60,0.00,,OVC085,0.00,VWS V14.01,2013-02-13 04:12:00,
2013-02-12 23:17:00,47.5,33.5,29.94,NW,312,1.0,6.0,58,0.00,,OVC085,0.00,VWS V14.01,2013-02-13 04:17:00,
2013-02-12 23:22:00,47.7,33.7,29.94,WNW,300,3.0,6.0,58,0.00,,OVC085,0.00,VWS V14.01,2013-02-13 04:22:00,
2013-02-12 23:27:00,48.0,35.6,29.94,SW,228,4.0,6.0,62,0.00,,OVC085,0.00,VWS V14.01,2013-02-13 04:27:00,
2013-02-12 23:30:00,48.0,34.8,29.94,SW,214,2.0,6.0,60,0.00,,BKN049,0.00,VWS V14.01,2013-02-13 04:30:00,
2013-02-12 23:32:00,48.3,33.8,29.95,WSW,255,3.0,6.0,57,0.00,,OVC085,0.00,VWS V14.01,2013-02-13 04:32:00,
2013-02-12 23:37:00,48.8,35.1,29.95,SW,229,2.0,6.0,59,0.00,,OVC085,0.00,VWS V14.01,2013-02-13 04:37:00,
2013-02-12 23:42:00,49.1,35.0,29.94,SSE,163,2.0,6.0,58,0.00,,OVC085,0.00,VWS V14.01,2013-02-13 04:42:00,
2013-02-12 23:47:00,49.4,37.3,29.94,WSW,239,9.0,12.0,63,0.00,,OVC085,0.00,VWS V14.01,2013-02-13 04:47:00,
2013-02-12 23:52:00,49.3,39.6,29.94,WSW,240,6.0,12.0,69,0.00,,OVC085,0.00,VWS V14.01,2013-02-13 04:52:00,
2013-02-12 23:57:00,48.8,40.5,29.94,SSW,211,7.0,12.0,73,0.00,,OVC085,0.00,VWS V14.01,2013-02-13 04:57:00,